Vorticity
nan nan nan nan nan nan nan nan nan nan nan nan nan nan nan nan nan nan nan nan nan nan nan nan nan nan nan nan nan nan nan nan
nan 13 17 13 10 8 7 6 6 5 7 7 7 6 4 6 11 11 8 9 9 7 7 8 7 9 8 6 7 7 7 nan
nan 12 13 14 10 7 7 6 6 4 5 7 9 12 9 8 9 12 11 8 8 8 7 7 6 8 9 8 6 8 9 nan
nan 13 13 12 9 9 9 10 7 6 5 3 6 8 11 10 9 8 10 11 9 7 7 6 7 8 9 8 7 7 7 nan
nan 12 13 13 12 10 11 12 10 8 8 8 7 5 5 8 8 8 9 9 7 7 7 8 7 8 8 8 6 5 10 nan
nan 11 10 13 15 12 10 10 7 10 8 7 7 5 6 10 13 13 9 8 8 7 8 9 8 8 11 7 5 9 6 nan
nan 13 10 10 11 16 15 11 7 7 8 7 7 5 6 7 9 9 9 8 11 10 9 10 9 9 13 11 5 7 5 nan
nan 8 8 6 7 8 10 10 10 10 9 7 8 7 7 7 7 8 8 7 10 12 9 8 8 8 6 9 13 9 10 nan
nan 4 5 7 7 5 7 9 11 12 10 9 9 9 7 9 7 7 9 9 11 13 10 9 11 9 7 8 9 10 10 nan
nan 5 7 7 8 8 7 6 9 10 10 11 10 10 8 9 9 8 9 9 11 14 12 9 8 11 11 7 8 8 9 nan
nan 11 9 8 8 10 8 8 8 8 9 8 9 9 8 8 10 11 10 11 11 9 10 10 8 8 8 8 10 9 7 nan
nan 11 9 9 8 8 7 9 8 8 8 8 7 9 10 9 9 12 11 11 11 9 9 7 9 9 9 9 9 9 7 nan
nan 11 10 8 8 8 8 7 7 8 9 10 9 8 9 8 9 11 12 11 10 10 10 11 9 8 11 8 8 8 9 nan
nan 13 13 8 7 8 8 8 7 8 10 9 9 9 9 10 11 11 9 9 11 11 12 9 8 9 8 10 9 8 8 nan
nan 10 11 12 12 10 8 7 10 10 10 8 8 9 10 11 11 10 10 9 9 11 12 11 8 8 8 9 9 9 8 nan
nan 10 11 10 10 11 11 11 11 11 9 9 9 9 10 10 13 13 12 11 9 10 8 8 9 8 10 9 9 9 7 nan
nan 11 11 11 11 12 13 12 13 12 11 9 10 11 12 10 10 11 9 10 10 9 9 9 6 11 13 8 7 7 11 nan
nan 13 10 12 15 15 16 14 13 12 10 12 13 12 11 12 10 11 11 9 9 9 8 8 8 11 11 9 7 8 10 nan
nan nan nan nan nan nan nan nan nan nan nan nan nan nan nan nan nan nan nan nan nan nan nan nan nan nan nan nan nan nan nan nan
CAPE
0 0 0 1099 1397 1486 1889 1868 1771 1614 1407 1102 938 986 1182 1009 910 1069 1029 1063 960 604 245 156 128 97 37 0 0 0 0 0
0 0 0 1047 1209 1337 1616 1649 1535 1373 1127 1074 1070 1090 959 850 588 791 797 931 708 497 283 115 90 128 42 0 0 0 0 0
0 0 0 603 1139 1315 1474 1482 1171 1200 1198 1159 1085 920 771 782 783 639 709 601 579 431 343 228 83 7 0 0 0 0 0 0
0 0 0 239 1050 1264 1543 1494 1165 1178 1069 852 389 366 486 626 527 727 692 534 637 649 364 408 119 0 0 0 0 0 0 0
0 0 0 0 700 1049 1498 1515 1206 1049 655 671 701 777 803 802 715 666 521 507 598 727 586 527 52 0 0 0 0 0 0 0
0 0 0 0 270 792 907 1160 925 719 618 617 648 668 525 401 435 411 345 491 600 613 632 278 0 0 0 0 0 0 0 0
0 0 0 0 0 483 1178 1060 963 694 595 532 629 650 397 227 244 187 241 400 489 535 314 0 0 0 0 0 0 0 0 0
0 0 0 0 34 41 262 982 1153 887 695 716 606 579 350 279 278 377 450 420 481 613 0 0 0 0 0 0 0 0 0 0
0 0 0 116 116 66 171 537 1097 994 780 753 651 572 423 393 323 530 572 574 525 385 0 0 0 0 0 0 0 0 0 0
0 0 0 11 204 197 33 27 403 898 949 802 688 656 692 670 703 572 574 378 2 0 0 0 0 2 0 0 0 0 0 0
0 0 0 0 65 138 47 16 18 178 531 617 882 971 945 946 524 186 42 0 0 0 0 0 0 0 0 0 0 0 0 0
0 0 0 0 0 26 48 37 56 0 12 102 178 207 244 349 150 6 0 0 0 0 0 0 0 0 0 0 0 0 0 0
0 0 0 0 0 0 23 33 38 19 0 0 0 22 27 75 13 0 0 0 0 0 0 0 0 0 0 0 0 0 0 0
0 0 0 0 0 0 34 77 114 114 38 35 28 30 3 17 0 0 0 0 0 0 0 0 0 0 0 0 0 0 0 0
0 0 0 0 0 4 48 116 155 166 205 225 213 181 35 0 0 0 0 0 0 0 0 0 0 0 0 0 0 0 0 0
0 0 0 0 0 0 2 42 184 181 228 329 383 308 44 0 0 0 0 0 0 0 0 0 0 0 0 0 0 0 0 0
0 0 0 0 0 0 0 0 0 187 286 302 462 64 0 0 0 0 0 0 0 0 0 0 0 0 0 0 0 0 0 0
0 0 0 0 0 0 0 0 0 0 14 11 0 0 0 0 0 0 0 0 0 0 0 0 0 0 0 0 0 0 0 0
0 0 0 0 0 0 0 0 0 0 0 0 0 0 0 0 0 0 0 0 0 0 0 0 0 0 0 0 0 0 0 0